{"data":{"norad_id":66530,"intl_designator":"2025-265Q","name":"STARLINK-35961","alt_names":[],"object_type":"PAYLOAD","status":"ACTIVE","operator":null,"country":"US","launch_date":"2025-11-19","launch_site_code":"AFETR","launch_vehicle":null,"mission":null,"orbit_class":"UNKNOWN","rcs_meters":null,"size_class":null,"mass_kg":null,"dimensions":null,"purposes":["comms"],"wikipedia_slug":null,"has_3d_model":false,"image_url":null,"decayed_at":null,"tle_current":{"epoch":"2026-09-20T16:25:19.403040Z","epoch_age_seconds":73296,"freshness":"FRESH","line1":"1 66530U 25265Q   26263.68425235  .00009976  00000+0  37146-3 0  9998","line2":"2 66530  42.9993 256.8547 0000621 284.4299  75.6484 15.27588672 46939","mean_motion":15.27588672,"eccentricity":6.21e-5,"inclination_deg":42.9993,"raan_deg":256.8547,"arg_perigee_deg":284.4299,"mean_anomaly_deg":75.6484,"bstar":0.00037146,"rev_number":4693,"period_min":94.266213568779,"perigee_km":482.59705103075,"apogee_km":483.44920711878,"semimajor_km":6861.1601290748,"source":"CELESTRAK","updated_at":"2026-09-21T09:00:35.966143Z"}}}